User: anonymous
Location: Muenchen
(48.1800°N, 11.5800°E)
Time: 00:50:38
(UTC+02:00)
Language:

Sich 1 Rocket - Orbit

View from above orbital plane
View from above orbital plane
View from above satellite
View from above satellite

Ground track
Ground track

The orbit data is extracted from the following two-line orbital elements,

1 23659U 95046C   14292.51548225  .00000698  00000-0  93476-4 0   514
2 23659 082.5276 126.8742 0026500 168.7503 213.7344 14.77837935 31013
Epoch (UTC): 19 October 2014 12:22:17
Eccentricity: 0.0026500
inclination: 82.5276°
perigee height: 617 km
apogee height: 655 km
right ascension of ascending node: 126.8742°
argument of perigee: 168.7503°
revolutions per day: 14.77837935
mean anomaly at epoch: 213.7344°
orbit number at epoch: 3101

The dashed part of the orbit path shows where the satellite is in the earth's shadow,  

DLR